C/2026 AZ17 ( Bok )

Japanese version
Home page
Updated on July 28, 2026

---------------------------------------------------------------------

* Profile

Discovery Date January 13, 2026
Magnitude 22.1 mag
Discoverer Bok reflector at Kitt Peak

* Pictures

* Orbital Elements

Epoch 2026 June 9.0 TT = JDT 2461200.5
T 2026 Nov. 23.22624 TT                                 Pike
q   2.4726639            (2000.0)            P               Q
z  +0.0154222      Peri.  146.91246     +0.50506285     +0.81082325
 +/-0.0000099      Node   149.97475     -0.86279281     +0.48320118
e   0.9618661      Incl.   36.23367     -0.02236251     -0.33027607
From 428 observations 2026 Jan. 13-July 5, mean residual 0".4.

* Magnitudes Graph

        m1 = 8.5 + 5 log d + 15.0 log r

---------------------------------------------------------------------

The orbital elements are published on M.P.E.C. 2026-N12.
The magnitudes graphs are made with Comet for Windows.

---------------------------------------------------------------------

Copyright(C) Seiichi Yoshida (comet@aerith.net). All rights reserved.